Home   Weather   Warren   Past weeks
Flag for USA

Past Weather in Warren, Michigan, USA — Yesterday and Last 2 Weeks

Now
38 °F

Clear.


Feels Like: 33 °F
Forecast: 56 / 36 °F
Wind: 6 mph from Northwest

Location: Detroit City Airport

Current Time: Apr 2, 2020 at 6:47:28 am

Latest Report: Apr 2, 2020 at 5:53 am


Visibility: 10 mi

Pressure: 30.09 "Hg

Humidity: 83%

Dew Point: 33 °F

Location of WarrenLocation

Past Weather in Warren — Graph

°F

Warren Temperature Yesterday

Maximum temperature yesterday: 51 °F (at 4:53 pm)
Minimum temperature yesterday: 41 °F (at 12:53 am)
Average temperature yesterday: 45 °F

High & Low Weather Summary for the Past Weeks

 TemperatureHumidityPressure
High65 °F (Mar 20, 8:53 am)100% (Mar 18, 8:53 pm)30.63 "Hg (Mar 18, 8:53 pm)
Low20 °F (Mar 22, 6:53 am)36% (Mar 22, 2:53 pm)29.50 "Hg (Mar 29, 11:53 am)
Average42 °F79%30.04 "Hg
* Reported Mar 18 4:53 am — Apr 2 4:53 am, Warren. Weather by CustomWeather, © 2020

Note: Actual official high and low records may vary slightly from our data, if they occured in-between our weather recording intervals... More about our weather records

Warren Weather History for the Previous 24 Hours

Scroll right to see more
 ConditionsComfort  
Time TempWeatherWind HumidityBarometerVisibility
4:53 am
Thu, Apr 2
38 °FClear.6 mph79%30.08 "Hg10 mi
3:53 am37 °FClear.3 mph82%30.08 "Hg10 mi
2:53 am39 °FClear.3 mph76%30.08 "Hg10 mi
1:53 am40 °FClear.5 mph77%30.09 "Hg10 mi
12:53 am41 °FClear.5 mph74%30.08 "Hg10 mi
11:53 pm
Wed, Apr 1
42 °FClear.5 mph71%30.08 "Hg10 mi
10:53 pm43 °FClear.3 mph65%30.07 "Hg10 mi
9:53 pm44 °FClear.5 mph60%30.08 "Hg10 mi
8:53 pm46 °FClear.3 mph56%30.06 "Hg10 mi
7:53 pm48 °FMostly cloudy.7 mph56%30.04 "Hg10 mi
6:53 pm49 °FOvercast.8 mph55%30.03 "Hg10 mi
5:53 pm50 °FMore clouds than sun.7 mph54%30.02 "Hg10 mi
4:53 pm51 °FOvercast.8 mph54%30.02 "Hg10 mi
3:53 pm50 °FCloudy.9 mph59%30.03 "Hg10 mi
2:53 pm50 °FOvercast.9 mph59%30.03 "Hg10 mi
2:00 pm49 °FMore clouds than sun.8 mph61%30.02 "Hg10 mi
1:19 pm48 °FMostly cloudy.8 mph66%30.02 "Hg10 mi
12:53 pm48 °FOvercast.9 mph63%30.03 "Hg10 mi
12:36 pm47 °FOvercast.9 mph69%30.03 "Hg10 mi
11:53 am47 °FOvercast.9 mph66%30.03 "Hg10 mi
10:53 am46 °FMore clouds than sun.6 mph73%30.03 "Hg10 mi
10:14 am45 °FCloudy.10 mph76%30.01 "Hg10 mi
9:53 am44 °FCloudy.8 mph79%30.02 "Hg10 mi
9:23 am43 °FMostly cloudy.8 mph79%30.00 "Hg10 mi
8:53 am43 °FOvercast.6 mph82%30.01 "Hg9 mi
7:53 am41 °FMostly cloudy.6 mph86%30.00 "Hg8 mi
6:53 am41 °FOvercast.5 mph86%29.98 "Hg9 mi
Weather by CustomWeather, © 2020

See weather overview

Advertising